timestamp,wind_dir_avg,wind_spd_avg,wind_spd_max_dir,wind_spd_gust,battery_voltage,lat,long
2023-10-03 00:04:00+00:00,234.0,2.8,239.0,3.11,12.49,47.59359,-54.27349
2023-10-03 00:14:01+00:00,256.0,3.2,254.0,3.58,12.49,47.59359,-54.27349
2023-10-03 00:24:01+00:00,253.0,3.39,256.0,3.76,12.49,47.59359,-54.27349
2023-10-03 00:34:01+00:00,273.0,3.83,272.0,4.26,12.49,47.59359,-54.27349
2023-10-03 00:44:01+00:00,272.0,3.92,272.0,4.22,12.49,47.59359,-54.27349
2023-10-03 00:54:01+00:00,255.0,2.45,252.0,2.69,12.49,47.59359,-54.27349
2023-10-03 01:04:01+00:00,250.0,1.53,251.0,1.7,12.49,47.59359,-54.27349
2023-10-03 01:14:01+00:00,236.0,1.04,237.0,1.26,12.41,47.59359,-54.27349
2023-10-03 01:24:01+00:00,214.0,1.83,216.0,1.97,12.41,47.59359,-54.27349
2023-10-03 01:34:01+00:00,242.0,1.53,247.0,1.93,12.41,47.59359,-54.27349
2023-10-03 01:44:01+00:00,270.0,0.9,270.0,1.06,12.41,47.59359,-54.27349
2023-10-03 01:54:01+00:00,293.0,1.0,293.0,1.19,12.41,47.59359,-54.27349
2023-10-03 02:04:01+00:00,354.0,1.69,352.0,1.95,12.41,47.59359,-54.27349
2023-10-03 02:14:00+00:00,345.0,0.24,339.0,0.47,12.41,47.59359,-54.27349
2023-10-03 02:24:00+00:00,338.0,3.91,337.0,4.37,12.41,47.59359,-54.27349
2023-10-03 02:34:00+00:00,303.0,3.15,306.0,3.53,12.41,47.59359,-54.27349
2023-10-03 02:44:00+00:00,271.0,2.57,271.0,3.36,12.41,47.59359,-54.27349
2023-10-03 02:54:00+00:00,213.0,1.6,214.0,1.79,12.41,47.59359,-54.27349
2023-10-03 03:04:00+00:00,227.0,2.05,234.0,2.38,12.41,47.59359,-54.27349
2023-10-03 03:14:01+00:00,223.0,2.03,218.0,2.44,12.41,47.59359,-54.27349
2023-10-03 03:24:01+00:00,242.0,1.5,233.0,1.83,12.41,47.59359,-54.27349
2023-10-03 03:34:01+00:00,267.0,2.07,269.0,2.49,12.41,47.59359,-54.27349
2023-10-03 03:44:01+00:00,271.0,2.67,272.0,3.03,12.41,47.59359,-54.27349
2023-10-03 03:54:01+00:00,302.0,3.91,307.0,4.77,12.41,47.59359,-54.27349
2023-10-03 04:04:01+00:00,322.0,3.94,319.0,4.48,12.41,47.59359,-54.27349
2023-10-03 04:14:00+00:00,332.0,3.21,337.0,3.75,12.41,47.59359,-54.27349
2023-10-03 04:24:00+00:00,329.0,2.28,326.0,2.48,12.41,47.59359,-54.27349
2023-10-03 04:34:00+00:00,316.0,2.99,320.0,3.66,12.41,47.59359,-54.27349
2023-10-03 04:44:00+00:00,57.0,1.61,56.0,2.35,12.41,47.59359,-54.27349
2023-10-03 04:54:00+00:00,340.0,1.76,341.0,2.21,12.41,47.59359,-54.27349
2023-10-03 05:04:00+00:00,353.0,2.46,351.0,2.71,12.41,47.59359,-54.27349
2023-10-03 05:14:00+00:00,345.0,2.31,340.0,2.52,12.33,47.59359,-54.27349
2023-10-03 05:24:00+00:00,343.0,2.88,344.0,3.31,12.33,47.59359,-54.27349
2023-10-03 05:34:00+00:00,6.0,3.55,9.0,3.9,12.33,47.59359,-54.27349
2023-10-03 05:44:00+00:00,340.0,3.42,340.0,3.76,12.33,47.59359,-54.27349
2023-10-03 05:54:00+00:00,344.0,3.06,344.0,3.72,12.33,47.59359,-54.27349
2023-10-03 06:04:00+00:00,343.0,2.28,344.0,2.52,12.33,47.59359,-54.27349
2023-10-03 06:14:00+00:00,1.0,2.07,347.0,2.49,12.33,47.59359,-54.27349
2023-10-03 06:24:00+00:00,341.0,2.26,341.0,2.51,12.33,47.59359,-54.27349
2023-10-03 06:34:00+00:00,336.0,3.45,334.0,3.75,12.33,47.59359,-54.27349
2023-10-03 06:44:00+00:00,313.0,2.87,311.0,3.14,12.33,47.59359,-54.27349
2023-10-03 06:54:00+00:00,321.0,2.54,320.0,2.87,12.33,47.59359,-54.27349
2023-10-03 07:04:00+00:00,318.0,3.55,320.0,3.95,12.33,47.59359,-54.27349
2023-10-03 07:14:00+00:00,327.0,2.39,323.0,2.68,12.33,47.59359,-54.27349
2023-10-03 07:24:00+00:00,316.0,1.62,325.0,1.98,12.33,47.59359,-54.27349
2023-10-03 07:34:00+00:00,303.0,2.18,298.0,2.68,12.33,47.59359,-54.27349
2023-10-03 07:44:00+00:00,305.0,2.48,311.0,2.72,12.33,47.59359,-54.27349
2023-10-03 07:54:00+00:00,273.0,1.96,274.0,2.13,12.33,47.59359,-54.27349
2023-10-03 08:04:00+00:00,295.0,2.05,290.0,2.25,12.33,47.59359,-54.27349
2023-10-03 08:14:00+00:00,299.0,1.94,306.0,2.23,12.25,47.59359,-54.27349
2023-10-03 08:24:00+00:00,340.0,0.6,329.0,0.82,12.25,47.59359,-54.27349
2023-10-03 08:34:00+00:00,11.0,1.3,17.0,1.48,12.25,47.59359,-54.27349
2023-10-03 08:44:00+00:00,347.0,1.96,343.0,2.42,12.25,47.59359,-54.27349
2023-10-03 08:54:00+00:00,315.0,1.73,317.0,2.05,12.25,47.59359,-54.27349
2023-10-03 09:04:00+00:00,307.0,1.84,308.0,2.03,12.25,47.59359,-54.27349
2023-10-03 09:14:00+00:00,233.0,2.22,234.0,2.38,12.17,47.59359,-54.27349
2023-10-03 09:24:00+00:00,261.0,2.12,259.0,2.41,12.17,47.59359,-54.27349
2023-10-03 09:34:00+00:00,244.0,1.87,241.0,2.01,12.17,47.59359,-54.27349
2023-10-03 09:44:00+00:00,267.0,1.95,272.0,2.2,12.17,47.59359,-54.27349
2023-10-03 09:54:00+00:00,300.0,2.9,300.0,3.16,12.17,47.59359,-54.27349
2023-10-03 10:04:00+00:00,305.0,2.55,309.0,2.96,12.17,47.59359,-54.27349
2023-10-03 10:14:00+00:00,350.0,2.66,350.0,2.91,12.17,47.59359,-54.27349
2023-10-03 10:24:00+00:00,333.0,3.33,333.0,3.55,12.17,47.59359,-54.27349
2023-10-03 10:34:00+00:00,322.0,1.55,322.0,1.97,12.17,47.59359,-54.27349
2023-10-03 10:44:00+00:00,327.0,1.26,324.0,1.67,12.17,47.59359,-54.27349
2023-10-03 10:54:00+00:00,159.0,0.85,162.0,1.05,12.17,47.59359,-54.27349
2023-10-03 11:04:00+00:00,238.0,1.22,244.0,1.4,12.17,47.59359,-54.27349
2023-10-03 11:14:00+00:00,200.0,1.53,207.0,1.74,12.81,47.59359,-54.27349
2023-10-03 11:24:00+00:00,200.0,2.37,205.0,2.67,12.81,47.59359,-54.27349
2023-10-03 11:34:00+00:00,208.0,2.27,212.0,2.45,12.81,47.59359,-54.27349
2023-10-03 11:44:00+00:00,216.0,2.39,213.0,2.7,12.81,47.59359,-54.27349
2023-10-03 11:54:00+00:00,212.0,3.53,211.0,3.9,12.81,47.59359,-54.27349
2023-10-03 12:04:00+00:00,197.0,3.72,201.0,4.08,12.81,47.59359,-54.27349
2023-10-03 12:14:00+00:00,179.0,2.92,183.0,3.46,12.97,47.59359,-54.27349
2023-10-03 12:24:00+00:00,220.0,4.31,218.0,4.96,12.97,47.59359,-54.27349
2023-10-03 12:34:00+00:00,227.0,3.63,229.0,4.54,12.97,47.59359,-54.27349
2023-10-03 12:44:00+00:00,208.0,3.44,210.0,3.81,12.97,47.59359,-54.27349
2023-10-03 12:54:00+00:00,230.0,4.31,237.0,4.81,12.97,47.59359,-54.27349
2023-10-03 13:04:00+00:00,241.0,3.03,242.0,3.39,12.97,47.59359,-54.27349
2023-10-03 13:14:00+00:00,224.0,4.45,221.0,5.2,13.29,47.59359,-54.27349
2023-10-03 13:24:00+00:00,221.0,5.27,223.0,5.89,13.29,47.59359,-54.27349
2023-10-03 13:34:00+00:00,225.0,5.74,226.0,6.18,13.29,47.59359,-54.27349
2023-10-03 13:44:00+00:00,229.0,4.01,229.0,5.09,13.29,47.59359,-54.27349
2023-10-03 13:54:00+00:00,233.0,4.88,230.0,5.55,13.29,47.59359,-54.27349
2023-10-03 14:04:00+00:00,215.0,5.36,212.0,5.98,13.29,47.59359,-54.27349
2023-10-03 14:14:00+00:00,219.0,4.98,223.0,5.54,13.53,47.59359,-54.27349
2023-10-03 14:24:00+00:00,212.0,4.88,215.0,5.31,13.53,47.59359,-54.27349
2023-10-03 14:34:00+00:00,207.0,5.69,204.0,6.03,13.53,47.59359,-54.27349
2023-10-03 14:44:00+00:00,223.0,5.28,219.0,5.91,13.53,47.59359,-54.27349
2023-10-03 14:54:00+00:00,223.0,5.58,223.0,5.99,13.53,47.59359,-54.27349
2023-10-03 15:04:00+00:00,213.0,5.76,213.0,6.15,13.53,47.59359,-54.27349
2023-10-03 15:14:01+00:00,210.0,5.18,210.0,5.61,13.92,47.59359,-54.27349
2023-10-03 15:24:01+00:00,193.0,5.24,191.0,5.94,13.92,47.59359,-54.27349
2023-10-03 15:34:01+00:00,197.0,6.35,196.0,6.82,13.92,47.59359,-54.27349
2023-10-03 15:44:01+00:00,204.0,5.68,210.0,6.24,13.92,47.59359,-54.27349
2023-10-03 15:54:01+00:00,208.0,6.11,203.0,6.88,13.92,47.59359,-54.27349
2023-10-03 16:04:01+00:00,208.0,5.65,210.0,6.52,13.92,47.59359,-54.27349
2023-10-03 16:14:00+00:00,211.0,6.09,206.0,6.79,13.84,47.59359,-54.27349
2023-10-03 16:24:00+00:00,211.0,6.3,212.0,6.87,13.84,47.59359,-54.27349
2023-10-03 16:34:00+00:00,216.0,5.72,218.0,6.91,13.84,47.59359,-54.27349
2023-10-03 16:44:00+00:00,211.0,6.3,210.0,6.77,13.84,47.59359,-54.27349
2023-10-03 16:54:00+00:00,211.0,6.12,210.0,6.93,13.84,47.59359,-54.27349
2023-10-03 17:04:00+00:00,210.0,6.29,211.0,7.05,13.84,47.59359,-54.27349
2023-10-03 17:14:00+00:00,211.0,6.25,212.0,6.81,13.37,47.59359,-54.27349
2023-10-03 17:24:00+00:00,205.0,6.54,206.0,7.0,13.37,47.59359,-54.27349
2023-10-03 17:34:00+00:00,208.0,6.67,208.0,7.46,13.37,47.59359,-54.27349
2023-10-03 17:44:00+00:00,210.0,7.11,213.0,8.45,13.37,47.59359,-54.27349
2023-10-03 17:54:00+00:00,205.0,7.13,203.0,7.91,13.37,47.59359,-54.27349
2023-10-03 18:04:00+00:00,206.0,7.09,207.0,7.71,13.37,47.59359,-54.27349
2023-10-03 18:14:01+00:00,210.0,7.17,209.0,7.81,13.29,47.59359,-54.27349
2023-10-03 18:24:01+00:00,208.0,7.14,209.0,7.84,13.29,47.59359,-54.27349
2023-10-03 18:34:01+00:00,215.0,6.67,215.0,7.3,13.29,47.59359,-54.27349
2023-10-03 18:44:01+00:00,213.0,7.09,215.0,7.6,13.29,47.59359,-54.27349
2023-10-03 18:54:01+00:00,211.0,6.77,215.0,7.56,13.29,47.59359,-54.27349
2023-10-03 19:04:01+00:00,211.0,7.34,214.0,8.39,13.29,47.59359,-54.27349
2023-10-03 19:14:01+00:00,217.0,8.11,219.0,9.06,13.29,47.59359,-54.27349
2023-10-03 19:24:01+00:00,215.0,8.82,213.0,10.13,13.29,47.59359,-54.27349
2023-10-03 19:34:01+00:00,215.0,8.61,215.0,9.38,13.29,47.59359,-54.27349
2023-10-03 19:44:01+00:00,218.0,9.41,219.0,10.81,13.29,47.59359,-54.27349
2023-10-03 19:54:01+00:00,218.0,9.08,219.0,10.27,13.29,47.59359,-54.27349
2023-10-03 20:04:01+00:00,224.0,7.43,220.0,8.16,13.29,47.59359,-54.27349
2023-10-03 20:14:00+00:00,217.0,7.44,218.0,8.23,13.13,47.59359,-54.27349
2023-10-03 20:24:00+00:00,219.0,7.45,217.0,8.92,13.13,47.59359,-54.27349
2023-10-03 20:34:00+00:00,214.0,7.85,213.0,8.81,13.13,47.59359,-54.27349
2023-10-03 20:44:00+00:00,216.0,7.79,222.0,8.46,13.13,47.59359,-54.27349
2023-10-03 20:54:00+00:00,215.0,5.98,217.0,7.5,13.13,47.59359,-54.27349
2023-10-03 21:04:00+00:00,210.0,6.47,210.0,7.18,13.13,47.59359,-54.27349
2023-10-03 21:14:00+00:00,214.0,7.09,216.0,7.96,12.65,47.59359,-54.27349
2023-10-03 21:24:00+00:00,215.0,6.18,216.0,7.06,12.65,47.59359,-54.27349
2023-10-03 21:34:00+00:00,218.0,7.03,217.0,7.81,12.65,47.59359,-54.27349
2023-10-03 21:44:00+00:00,216.0,6.68,218.0,7.93,12.65,47.59359,-54.27349
2023-10-03 21:54:00+00:00,218.0,6.27,217.0,7.09,12.65,47.59359,-54.27349
2023-10-03 22:04:00+00:00,219.0,6.07,218.0,7.01,12.65,47.59359,-54.27349
2023-10-03 22:14:01+00:00,223.0,6.74,224.0,7.6,12.49,47.59359,-54.27349
2023-10-03 22:24:01+00:00,223.0,6.56,222.0,7.4,12.49,47.59359,-54.27349
2023-10-03 22:34:01+00:00,226.0,5.43,230.0,5.94,12.49,47.59359,-54.27349
2023-10-03 22:44:01+00:00,230.0,5.95,231.0,6.96,12.49,47.59359,-54.27349
2023-10-03 22:54:01+00:00,232.0,5.25,232.0,6.14,12.49,47.59359,-54.27349
2023-10-03 23:04:01+00:00,233.0,4.65,230.0,5.46,12.49,47.59359,-54.27349
2023-10-03 23:14:00+00:00,232.0,5.35,229.0,5.95,12.41,47.59359,-54.27349
2023-10-03 23:24:00+00:00,237.0,5.92,238.0,6.63,12.41,47.59359,-54.27349
2023-10-03 23:34:00+00:00,239.0,6.22,238.0,6.5,12.41,47.59359,-54.27349
2023-10-03 23:44:00+00:00,247.0,5.78,243.0,6.44,12.41,47.59359,-54.27349
2023-10-03 23:54:00+00:00,249.0,5.77,251.0,6.53,12.41,47.59359,-54.27349
